Find Kosmos-1196

NORAD ID: 11879 Int'l Des: 1980-058 Owner: GUKOSR Country: SU operational
LEOCIRCULAR

Live Position

Loading 3D Globe...

About Kosmos-1196

Description loading...

Upcoming Passes

Passes for default location (London). Set your location on the main map for personalized predictions.

Altitude History

Loading altitude history...

Two-Line Element Set

1 11879U 80058E 26106.73023652 -.00000006 00000-0 68292-4 0 9998
2 11879 74.0148 105.5329 0005347 311.0174 221.6287 12.48409599564748
Epoch: Apr 16, 2026 • Age: 19 hours

Current Status

Altitude 1486.2 km
Velocity 7.13 km/s
Sub-Earth Point 72.72°N, 141.11°E
Launch Date Jul 9, 1980
Age 45.7 years
Type other

Technical Details

Classification Payload
Mass 60.00 kg
Dry Mass 60.00 kg
Total Mass 60.00 kg
Length 0.80 m
Diameter 0.80 m
Span 0.80 m
Shape Poly
Manufacturer NPOPM
Bus Type Strela-1 11F625
Phase Status In Orbit
Owner/State GUKOSR/SU

Most Searched